www.pogodaiklimat.ru

Погода и климат >> Архив погоды >> Боливия >> Пуэрто-Суарес


ПОГОДА в Пуэрто-Суаресе

  • Прогноз погоды в Пуэрто-Суаресе
  • Монитор погоды в Пуэрто-Суаресе

АРХИВ ПОГОДЫ в Пуэрто-Суаресе

Время (UTC), дата Ветер
(напр.,м/с)
 
Видим.   Явления Облачность Т
(С)
Тd
(С)
f
(%)
Тe
(С)
Тes
(С)
Комфортность P
(гПа)
Po
(гПа)
Тmin
(С)
Tmax
(С)
R
(мм)
R24
(мм)
S
(см)
18 17.08 С 7 7000 м дым ясно +37.0 +15.3 28 +39 +41 очень
душно
1007.3 992.0
21 17.08 В 3 8000 м дым ясно +34.5 +16.7 35 +37 +38 очень
душно
1005.7 990.5 +37.3
12 18.08 штиль 0 5000 м дым ясно +24.2 +20.4 79 +30 +35 очень
душно
1011.6 996.2 +20.0
15 18.08 СВ 3 5000 м дым ясно +31.5 +20.9 53 +39 +53 опасность
солнечного
удара
1012.5 997.0
18 18.08 С 6 4000 м дым 4/4 600 м
[Cu med, cong]
+36.5 +19.4 37 +42 +44 опасность
перегрева
1009.0 993.7
21 18.08 штиль 0 4000 м дым 6/6 700 м
[Cu med, cong]
+35.5 +22.0 46 +44 +44 опасность
перегрева
1008.2 993.0 +36.8
12 19.08 Ю 5 6000 м дым ясно +22.0 +16.8 72 +26 +28 душно 1014.9 1000.6 +16.5
15 19.08 Ю 5 3000 м дым ясно +25.0 +16.6 60 +29 +37 душно 1015.7 1001.0
18 19.08 Ю 2 6000 м дым ясно +28.5 +18.8 56 +34 +45 очень
душно
1013.2 998.2
21 19.08 Ю 2 7000 м дым ясно +27.0 +22 +23 комфорт 1011.9 997.2 +29.0
12 20.08 Ю 2 3000 м дым ясно +19.2 +13.4 69 +21 +25 комфорт 1017.6 1003.0 +16.2
18 20.08 Ю 3 1000 м дым ясно +28.0 +19.5 60 +34 +44 очень
душно
1015.6 1001.0
21 20.08 штиль 0 2000 м дым ясно +26.3 +21.4 74 +33 +34 очень
душно
1014.6 999.0 +29.0
12 21.08 В 2 1000 м дым ясно +19.0 +12.5 66 +21 +25 комфорт 1017.6 1003.0 +14.5
15 21.08 Ю 3 1000 м дым ясно +27.0 +17.5 56 +31 +45 душно 1017.0 1003.2
18 21.08 В 2 1000 м дым ясно +31.7 +19.8 49 +38 +49 очень
душно
1014.7 1000.0
21 21.08 В 2 5000 м дым ясно +30.0 +20.2 56 +37 +37 очень
душно
1013.2 998.5 +32.5
12 22.08 СВ 2 7000 м дым ясно +24.0 +19.0 74 +29 +33 душно 1015.4 1000.8 +15.2
15 22.08 СВ 6 7000 м дым ясно +30.5 +21.6 59 +39 +45 очень
душно
1016.5 1001.0
18 22.08 СВ 5 7000 м дым ясно +33.0 +20.6 48 +40 +46 очень
душно
1013.7 999.0
21 22.08 СВ 2 8000 м дым 5/5 600 м
[Cu med, cong]
+32.0 +22.5 57 +41 +42 опасность
перегрева
1013.0 998.3 +33.5
12 23.08 Ю 2 5000 м дым 5/0 2000 м
[Ac trans]
+22.5 +17.3 72 +27 +30 душно 1018.6 1004.0 +20.0
15 23.08 Ю 3 5000 м дым 5/0 2000 м
[Ac trans]
+27.0 +19.9 65 +33 +42 очень
душно
1017.6 1003.0
18 23.08 Ю 2 4000 м дым ясно +32.0 +20.9 52 +39 +51 опасность
солнечного
удара
1015.0 1000.4
21 23.08 Ю 2 7000 м дым ясно +30.0 +21.8 62 +39 +39 очень
душно
1012.9 998.3 +32.2
12 24.08 штиль 0 6000 м дым 4/0 2000 м
[Ac trans]
+20.0 +15.4 75 +22 +27 комфорт 1014.7 1001.0 +15.2
15 24.08 В 5 7000 м дым ясно +28.0 +19.5 60 +34 +42 очень
душно
1014.2 1001.0

 

Местоположение метеостанции Пуэрто-Суарес (Боливия): широта -18.98 долгота -57.81 высота над уровнем моря 134 м.

В архиве по умолчанию представлена погода в Пуэрто-Суаресе за последнюю неделю. Архивные данные за месяц целиком и за предыдущие месяцы, начиная с января 2011 года, Вы можете получить, выбрав интересующий диапазон дат из раскрывающегося списка и нажав кнопку "Ввод!".


*Определитесь, кто Вы:
робот инопланетянин человек

Внимание! Время в таблицах - всемирное. Для получения местного времени необходимо прибавить поправку, которая равна -4 ч.

Смотрите также архив погоды в соседних городах и на ближайших метеорологических станциях:

Погода в Корумбе (Мату-Гросу-ду-Сул, Бразилия) (19 км)
Погода в Хумириме (Мату-Гросу-ду-Сул, Бразилия) (125 км)
Погода в Миранде (Мату-Гросу-ду-Сул, Бразилия) (214 км)
Погода в Роборе (Боливия) (219 км)
Погода в Акидауане (Мату-Гросу-ду-Сул, Бразилия) (270 км)
Погода в Сан-Матиасе (Боливия) (301 км)
Погода в Порто Муртиньо (Мату-Гросу-ду-Сул, Бразилия) (304 км)
Погода в Касерисе (Мату-Гросу, Бразилия) (324 км)
Погода в Касересе (Мату-Гросу, Бразилия) (326 км)
Погода в Жардиме (Мату-Гросу-ду-Сул, Бразилия) (328 км)

Пояснения к столбцам:

Ветер - указаны скорость ветра в м/с - средняя за 10 мин, порывы в срок и между сроками (в фигурных скобках) и направление, откуда дует ветер: С - северный, СВ - северо-восточный, В - восточный, ЮВ - юго-восточный, Ю - южный, ЮЗ - юго-западный, З - западный, СЗ - северо-западный.
Видимость - горизонтальная дальность видимости в метрах или километрах. При видимости от 1 до 10 км при отсутствии осадков обычно наблюдается дымка, при ухудшении видимости до 1 км и менее - туман. В сухую погоду видимость может ухудшаться дымом, пылью или мглою.
Явления - указаны атмосферные явления, наблюдавшиеся в срок или в последний час перед сроком; фигурными скобками обозначены явления, наблюдавшиеся между сроками (за 1-3 часа до срока); квадратными скобками обозначены град или гололедные отложения с указанием их диаметра в мм.
Облачность - указаны через наклонную черту общая и нижняя облачность в баллах и высота нижней границы облаков в метрах; квадратными скобками обозначены формы облаков: Ci - перистые, Cs - перисто-слоистые, Cc - перисто-кучевые, Ac - высококучевые, As - высокослоистые, Sc - слоисто-кучевые, Ns - слоисто-дождевые, Cu - кучевые, Cb - кучево-дождевые. Подробнее классификацию облаков см. в Атласе облаков (PDF).
T - Температура воздуха - температура, измеренная на высоте 2 м над землей.
Td - Температура точки росы - температура, при понижении до которой содержащийся в воздухе водяной пар достигнет насыщения.
f - Относительная влажность воздуха - влажноcть воздуха, измеренная на высоте 2 м над землей.
Te - Эффективная температура - температура, которую ощущает одетый по сезону человек в тени. Характеристика душности погоды. При расчете учитывается влияние влажности воздуха и скорости ветра на теплоощущения человека.
Tes - Эффективная температура на солнце - температура, которую ощущает человек, с поправкой на солнечный нагрев. Характеристика знойности погоды. Зависит от высоты солнца над горизонтом, облачности и скорости ветра. Ночью, в пасмурную погоду, а также при ветре 12 м/с и более поправка равна нулю.
P - Атмосферное давление - приведенное к уровню моря атмосферное давление.
Po - Атмосферное давление - измеренное на уровне метеостанции атмосферное давление.
Tmin - Минимальная температура - минимум температуры воздуха на высоте 2 м над землей.
Tmax - Максимальная температура - максимум температуры воздуха на высоте 2 м над землей.
R - Количество осадков - Количество выпавших осадков за период времени, мм. При наведении курсора мыши на число - период времени, за который выпало указанное количество осадков.
R24 - Количество осадков - Количество выпавших осадков за 24 часа, мм.
S - Снежный покров - Высота снежного покрова, см. При наведении курсора мыши на число - состояние снежного покрова и степень покрытия местности в баллах.